{"data":{"norad_id":60201,"intl_designator":"2024-124U","name":"STARLINK-32020","alt_names":[],"object_type":"PAYLOAD","status":"ACTIVE","operator":null,"country":"US","launch_date":"2024-07-03","launch_site_code":"AFETR","launch_vehicle":null,"mission":null,"orbit_class":"UNKNOWN","rcs_meters":null,"size_class":null,"mass_kg":null,"dimensions":null,"purposes":["comms"],"wikipedia_slug":null,"has_3d_model":false,"image_url":null,"decayed_at":null,"tle_current":{"epoch":"2026-09-21T21:04:45.640128Z","epoch_age_seconds":62392,"freshness":"FRESH","line1":"1 60201U 24124U   26264.87830602 -.00000246  00000+0  38281-5 0  9995","line2":"2 60201  53.1587 129.7563 0001244  82.2170 277.8972 15.31697246124355","mean_motion":15.31697246,"eccentricity":0.0001244,"inclination_deg":53.1587,"raan_deg":129.7563,"arg_perigee_deg":82.217,"mean_anomaly_deg":277.8972,"bstar":3.8281e-6,"rev_number":12435,"period_min":94.013356997314,"perigee_km":469.89620344917,"apogee_km":471.60020608811,"semimajor_km":6848.8852047686,"source":"CELESTRAK","updated_at":"2026-09-22T09:00:49.185383Z"}}}